2018-099BA (43806 NORAD) Tracking and Keplerian Element Data

This shows tracking and keplerian element data for the satellite.

Feedback or suggestion? Click here.




ElementValue
Catalog43806
Name2018-099BA
Epoch Orbit22423
Epoch Day13.86474239
Epoch Year2023
RAAN79.7473
Inclination97.5944
Eccentricity0.0012435
Argument of Perigee281.5314
Mean Anonmoly78.4522
Mean Motion14.97573053
Decay Rate5.286E-05
L11 43806U 18099BA 23013.86474239 .00005286 00000+0 45680-3 0 9996
L22 43806 97.5944 79.7473 0012435 281.5314 78.4522 14.97573053224232



Live tracking and technical data element details for 2018-099BA (NORAD 43806). 2018-099BA can be tracked NOW for your location showing map with azimuth and elevation plus other details from your city location.







IsCatalogInMostPopularTable: catalog: 43806, numindb: 372
Update: records affected: 1



GetName: 43806 2018-099BA

Hit Count: updated at: Thu, 16 Apr 2026 05:23:14 GMT